Petersburg, AK

11:11 AM AKDT on March 27, 2017 (GMT -0800)
Johnson Petersburg

Weather History for PAPG - January, 2013

Change the Weather History Date:

Saturday, January 5, 2013

  Actual Average Record
Temperature  
Mean Temperature 38 °F -  
Max Temperature 44 °F 31 °F 51 °F (2002)
Min Temperature 33 °F 24 °F 6 °F (1991)
Degree Days  
Heating Degree Days 26    
Moisture  
Dew Point 33 °F    
Average Humidity 78    
Maximum Humidity 93    
Minimum Humidity 49    
Precipitation  
Precipitation 0.20 in - - ()
Sea Level Pressure  
Sea Level Pressure 29.75 in    
Wind  
Wind Speed 5 mph (SE)    
Max Wind Speed 14 mph    
Max Gust Speed 23 mph    
Visibility 10 miles    
Events      
Averages and records for this station are not official NWS values.
T = Trace of Precipitation, MM = Missing Value Source: NWS Daily Summary

Daily Weather History Graph

Daily Weather History Graph

Search for Another Location

Airport or City:

Trip Planner

Search our weather history database for the weather conditions in past years. The results will help you decide how hot, cold, wet, or windy it might be!

Date:

Astronomy

Jan. 05, 2013 Rise Set
Actual Time 8:26 AM AKST 3:28 PM AKST
Civil Twilight 7:38 AM AKST 4:16 PM AKST
Nautical Twilight 6:48 AM AKST 5:06 PM AKST
Astronomical Twilight 6:02 AM AKST 5:52 PM AKST
Moon 12:58 AM AKST (1/5) 10:59 AM AKST (1/5)
Length of Visible Light 8h 38m
Length of Day
7h 02m
Last Quarter, 42% of the Moon is Illuminated
Jan 5
Last Quarter
Jan 11
New
Jan 18
First Quarter
Jan 26
Full
Feb 3
Last Quarter

Hourly Weather History & Observations

Time (AKST) Temp. Windchill Dew Point Humidity Pressure Visibility Wind Dir Wind Speed Gust Speed Precip Events Conditions
12:16 AM 41.0 °F 38.0 °F 28.4 °F 61% 29.89 in 10.0 mi ENE 4.6 mph - N/A   Overcast
12:36 AM 41.0 °F - 26.6 °F 57% 29.89 in 10.0 mi Calm Calm - N/A   Overcast
12:56 AM 44.6 °F 42.2 °F 26.6 °F 49% 29.88 in 10.0 mi NNE 4.6 mph - N/A   Overcast
1:16 AM 41.0 °F - 26.6 °F 57% 29.87 in 10.0 mi Calm Calm - N/A   Overcast
1:36 AM 42.8 °F 38.6 °F 26.6 °F 53% 29.87 in 10.0 mi ESE 6.9 mph - N/A   Overcast
1:56 AM 44.6 °F 38.1 °F 30.2 °F 57% 29.87 in 10.0 mi SSE 13.8 mph 23.0 mph N/A   Overcast
2:16 AM 42.8 °F 37.5 °F 30.2 °F 61% 29.88 in 10.0 mi SE 9.2 mph - N/A   Overcast
2:56 AM 41.0 °F 35.8 °F 32.0 °F 70% 29.86 in 10.0 mi SSE 8.1 mph 16.1 mph 0.03 in   Overcast
3:16 AM 41.0 °F 37.1 °F 33.8 °F 76% 29.85 in 10.0 mi ESE 5.8 mph 18.4 mph 0.01 in   Overcast
3:36 AM 41.0 °F 35.2 °F 32.0 °F 70% 29.85 in 10.0 mi SSE 9.2 mph - 0.02 in   Overcast
3:56 AM 39.2 °F 34.2 °F 33.8 °F 81% 29.84 in 10.0 mi ESE 6.9 mph - 0.02 in   Overcast
4:16 AM 41.0 °F 35.8 °F 32.0 °F 70% 29.82 in 10.0 mi SE 8.1 mph 17.3 mph 0.01 in   Overcast
4:36 AM 41.0 °F 36.4 °F 32.0 °F 70% 29.81 in 10.0 mi ESE 6.9 mph - 0.01 in   Overcast
4:56 AM 42.8 °F 39.3 °F 30.2 °F 61% 29.80 in 10.0 mi SE 5.8 mph - 0.01 in   Overcast
5:16 AM 42.8 °F - 30.2 °F 61% 29.80 in 10.0 mi Calm Calm - N/A   Overcast
5:36 AM 42.8 °F 39.3 °F 30.2 °F 61% 29.79 in 10.0 mi ESE 5.8 mph - N/A   Overcast
5:56 AM 42.8 °F 39.3 °F 30.2 °F 61% 29.79 in 10.0 mi ESE 5.8 mph - N/A   Unknown
6:16 AM 41.0 °F 39.0 °F 32.0 °F 70% 29.78 in 10.0 mi East 3.5 mph - N/A   Overcast
6:56 AM 41.0 °F 36.4 °F 32.0 °F 70% 29.77 in 10.0 mi SE 6.9 mph - 0.01 in   Overcast
7:16 AM 41.0 °F 35.8 °F 32.0 °F 70% 29.76 in 10.0 mi SE 8.1 mph - N/A   Overcast
7:56 AM 39.2 °F 37.0 °F 33.8 °F 81% 29.76 in 10.0 mi East 3.5 mph - 0.01 in   Overcast
8:16 AM 39.2 °F 34.2 °F 33.8 °F 81% 29.75 in 10.0 mi ESE 6.9 mph - N/A   Overcast
8:36 AM 39.2 °F 34.2 °F 33.8 °F 81% 29.74 in 10.0 mi East 6.9 mph - N/A   Overcast
8:56 AM 39.2 °F 35.0 °F 33.8 °F 81% 29.73 in 10.0 mi ESE 5.8 mph - N/A   Overcast
9:16 AM 39.2 °F 34.2 °F 33.8 °F 81% 29.73 in 10.0 mi ESE 6.9 mph - N/A   Overcast
9:36 AM 39.2 °F 35.9 °F 33.8 °F 81% 29.72 in 10.0 mi ESE 4.6 mph - 0.01 in   Overcast
9:56 AM 39.2 °F 35.0 °F 33.8 °F 81% 29.71 in 10.0 mi SE 5.8 mph - 0.01 in   Overcast
10:16 AM 39.2 °F 33.6 °F 33.8 °F 81% 29.71 in 10.0 mi ESE 8.1 mph - N/A   Overcast
10:36 AM 39.2 °F 33.6 °F 33.8 °F 81% 29.70 in 10.0 mi ESE 8.1 mph - N/A   Overcast
10:56 AM 39.2 °F 34.2 °F 33.8 °F 81% 29.69 in 10.0 mi ESE 6.9 mph - 0.01 in   Overcast
11:16 AM 41.0 °F 35.8 °F 33.8 °F 76% 29.68 in 10.0 mi ESE 8.1 mph - N/A   Overcast
11:36 AM 41.0 °F 36.4 °F 33.8 °F 76% 29.67 in 10.0 mi SE 6.9 mph - N/A   Overcast
11:56 AM 41.0 °F 37.1 °F 33.8 °F 76% 29.67 in 10.0 mi SE 5.8 mph - N/A   Overcast
12:16 PM 39.2 °F 34.2 °F 33.8 °F 81% 29.67 in 10.0 mi SE 6.9 mph - 0.01 in   Overcast
12:36 PM 39.2 °F 34.2 °F 33.8 °F 81% 29.67 in 10.0 mi SE 6.9 mph - 0.02 in   Overcast
12:56 PM 39.2 °F 33.6 °F 33.8 °F 81% 29.66 in 10.0 mi ESE 8.1 mph - 0.02 in   Overcast
1:16 PM 39.2 °F 35.0 °F 33.8 °F 81% 29.66 in 10.0 mi ESE 5.8 mph - N/A   Overcast
1:56 PM 39.2 °F 34.2 °F 33.8 °F 81% 29.66 in 10.0 mi ESE 6.9 mph - 0.02 in   Overcast
2:16 PM 39.2 °F 34.2 °F 33.8 °F 81% 29.67 in 10.0 mi SE 6.9 mph 16.1 mph N/A   Overcast
2:36 PM 39.2 °F 37.0 °F 33.8 °F 81% 29.68 in 10.0 mi ESE 3.5 mph - N/A   Overcast
2:56 PM 37.4 °F 34.9 °F 33.8 °F 87% 29.68 in 10.0 mi West 3.5 mph - 0.01 in   Overcast
3:16 PM 39.2 °F 37.0 °F 33.8 °F 81% 29.68 in 10.0 mi WNW 3.5 mph - 0.01 in   Overcast
3:36 PM 39.2 °F - 33.8 °F 81% 29.69 in 10.0 mi Calm Calm - 0.02 in   Overcast
3:56 PM 37.4 °F - 33.8 °F 87% 29.70 in 7.0 mi Calm Calm - 0.03 in   Overcast
4:16 PM 37.4 °F - 33.8 °F 87% 29.71 in 7.0 mi Calm Calm - N/A   Overcast
4:36 PM 37.4 °F 34.9 °F 35.6 °F 93% 29.71 in 7.0 mi SSE 3.5 mph - N/A   Overcast
4:56 PM 37.4 °F 34.9 °F 33.8 °F 87% 29.71 in 10.0 mi WSW 3.5 mph - N/A   Overcast
5:16 PM 37.4 °F 33.8 °F 33.8 °F 87% 29.72 in 10.0 mi West 4.6 mph - N/A   Overcast
5:36 PM 37.4 °F - 35.6 °F 93% 29.72 in 10.0 mi Calm Calm - 0.01 in   Overcast
5:56 PM 37.4 °F 34.9 °F 35.6 °F 93% 29.73 in 10.0 mi NW 3.5 mph - 0.02 in   Overcast
6:16 PM 37.4 °F - 35.6 °F 93% 29.72 in 10.0 mi Calm Calm - N/A   Overcast
6:36 PM 37.4 °F 34.9 °F 33.8 °F 87% 29.73 in 10.0 mi SSW 3.5 mph - N/A   Overcast
6:56 PM 35.6 °F - 33.8 °F 93% 29.72 in 7.0 mi Calm Calm - N/A   Mostly Cloudy
7:16 PM 37.4 °F - 33.8 °F 87% 29.72 in 7.0 mi Calm Calm - N/A   Mostly Cloudy
7:36 PM 35.6 °F - 32.0 °F 87% 29.71 in 7.0 mi Calm Calm - N/A   Mostly Cloudy
7:56 PM 35.6 °F - 32.0 °F 87% 29.71 in 10.0 mi Calm Calm - N/A   Scattered Clouds
8:16 PM 33.8 °F 30.8 °F 30.2 °F 87% 29.71 in 10.0 mi SSW 3.5 mph - N/A   Scattered Clouds
8:36 PM 33.8 °F 29.6 °F 30.2 °F 87% 29.70 in 10.0 mi South 4.6 mph - N/A   Scattered Clouds
8:56 PM 33.8 °F - 30.2 °F 87% 29.71 in 10.0 mi Calm Calm - N/A   Scattered Clouds
9:16 PM 33.8 °F 30.8 °F 32.0 °F 93% 29.70 in 10.0 mi SW 3.5 mph - N/A   Scattered Clouds
11:56 PM - - - N/A% 29.72 in - West 3.5 mph - N/A   Unknown